sat.trackr.live / text

‹ back to catalog

STARLINK-3120

NORAD 49419 · 2021-104M

PAYLOAD ACTIVE UNKNOWN

§ Identity

Operator
Country
US
Launch date
2021-11-13
Launch site
AFETR
Launch vehicle
Mass (kg)
RCS (m²)

Purposes: comms

External: N2YO · Heavens-Above · Gunter

§ Orbital elements

Epoch: 2026-09-20T01:21:20.030112Z

Period
93.85 min
Inclination
53.1614°
Eccentricity
0.0000690
Mean motion
15.34378536 rev/d
Perigee alt
462.3 km
Apogee alt
463.2 km
Semi-major
6,840.9 km
B*
8.6282e-5
RAAN
64.1491°
Arg perigee
104.9330°
Mean anomaly
255.1749°
Rev number
26,813

§ Raw data

STARLINK-31201 49419U 21104M   26263.05648183  .00002538  00000+0  86282-4 0  99962 49419  53.1614  64.1491 0000690 104.9330 255.1749 15.34378536268137

JSON: /api/v1/satellites/49419 · /tle

For live sub-satellite position, see the globe view (requires WebGL).

§ Visibility from observer

Set your observer location to see the next 7 days of passes ≥ 10°. The values pass through the URL so the page stays shareable.

No JS? Fill the form by hand. The geolocation button needs JavaScript.